Location: Mountain_View
(35.6670°N, 81.4000°W)
Time: 04:52:22
(UTC-05:00)

ISS - Pass Details

Date: 23 November 2019
Orbit: 411 x 421 km, 51.6° (Epoch: 16 December)

Event Time Altitude Azimuth Distance (km) Brightness Sun altitude
Rises 17:44:32 0° 227° (SW) 2,338 1.5 -6.4°
Reaches altitude 10° 17:46:36 10° 227° (SW) 1,481 0.3 -6.8°
Maximum altitude 17:49:56 89° 299° (WNW) 420 -3.8 -7.5°
Drops below altitude 10° 17:53:18 10° 48° (NE) 1,496 -1.5 -8.1°
Enters shadow 17:53:26 - 48° (NE) 1,551 -1.5 -8.1°
